When you browse on this site, cookies collect data to enhance your experience and personalize the content and advertising you see.
Visit our Privacy Policy to learn more. By continuing to use the site, you agree to this use of cookies and data.

Stündliche Wetter Tomashivka

Heute, 3 Juli, Freitag

Zeit Temperatur Niederschläge Wind Luftdruck Luftfeuchtigkeit
00:00 +20°C° 0 mm 2 m/S 744 mmHg 86%
01:00 +20°C° 0 mm 2 m/S 744 mmHg 85%
02:00 +20°C° 0 mm 1 m/S 745 mmHg 81%
03:00 +19°C° 0 mm 2 m/S 745 mmHg 82%
04:00 +19°C° 0 mm 2 m/S 744 mmHg 83%
05:00 +19°C° 0 mm 2 m/S 744 mmHg 84%
06:00 +21°C° 0 mm 2 m/S 745 mmHg 80%
07:00 +24°C° 0 mm 2 m/S 745 mmHg 76%
08:00 +25°C° 0 mm 2 m/S 745 mmHg 72%
09:00 +27°C° 0 mm 3 m/S 745 mmHg 68%
10:00 +28°C° 0 mm 3 m/S 745 mmHg 64%
11:00 +29°C° 0 mm 3 m/S 745 mmHg 60%
12:00 +29°C° 0 mm 3 m/S 745 mmHg 59%
13:00 +30°C° 0 mm 3 m/S 745 mmHg 58%
14:00 +30°C° 0 mm 3 m/S 744 mmHg 57%
15:00 +30°C° 0 mm 3 m/S 744 mmHg 59%
16:00 +30°C° 0 mm 2 m/S 744 mmHg 62%
17:00 +29°C° 0 mm 2 m/S 743 mmHg 65%
18:00 +28°C° 0 mm 2 m/S 744 mmHg 67%
19:00 +26°C° 0 mm 2 m/S 744 mmHg 70%
20:00 +24°C° 0 mm 2 m/S 744 mmHg 72%
21:00 +24°C° 0 mm 2 m/S 744 mmHg 73%
22:00 +23°C° 0 mm 2 m/S 744 mmHg 73%
23:00 +21°C° 0 mm 2 m/S 744 mmHg 73%

Morgen, 4 Juli, Samstag

Zeit Temperatur Niederschläge Wind Luftdruck Luftfeuchtigkeit
00:00 +21°C° 0 mm 2 m/S 744 mmHg 75%
01:00 +21°C° 0 mm 2 m/S 744 mmHg 77%
02:00 +20°C° 0 mm 2 m/S 744 mmHg 79%
03:00 +20°C° 0 mm 2 m/S 744 mmHg 81%
04:00 +20°C° 0 mm 2 m/S 744 mmHg 83%
05:00 +22°C° 0 mm 1 m/S 744 mmHg 85%
06:00 +23°C° 0 mm 1 m/S 744 mmHg 80%
07:00 +25°C° 0 mm 1 m/S 744 mmHg 75%
08:00 +27°C° 0 mm 1 m/S 744 mmHg 69%
09:00 +28°C° 0.3 mm 1 m/S 744 mmHg 66%
10:00 +29°C° 0.3 mm 2 m/S 744 mmHg 62%
11:00 +29°C° 0.3 mm 2 m/S 745 mmHg 59%
12:00 +29°C° 0.1 mm 2 m/S 744 mmHg 61%
13:00 +29°C° 0.1 mm 2 m/S 744 mmHg 63%
14:00 +28°C° 0.1 mm 2 m/S 744 mmHg 66%
15:00 +28°C° 0.5 mm 2 m/S 744 mmHg 70%
16:00 +27°C° 0.5 mm 2 m/S 744 mmHg 74%
17:00 +26°C° 0.5 mm 3 m/S 744 mmHg 79%
18:00 +25°C° 0.5 mm 3 m/S 744 mmHg 83%
19:00 +22°C° 0.5 mm 3 m/S 744 mmHg 87%
20:00 +21°C° 0.5 mm 3 m/S 744 mmHg 92%
21:00 +20°C° 0.9 mm 3 m/S 744 mmHg 92%
22:00 +20°C° 0.9 mm 2 m/S 744 mmHg 92%
23:00 +20°C° 0.9 mm 2 m/S 744 mmHg 92%

übermorgen, 5 Juli, Sonntag

Zeit Temperatur Niederschläge Wind Luftdruck Luftfeuchtigkeit
00:00 +20°C° 0.8 mm 2 m/S 743 mmHg 92%
01:00 +20°C° 0.8 mm 2 m/S 743 mmHg 93%
02:00 +19°C° 0.8 mm 2 m/S 743 mmHg 93%
03:00 +19°C° 0.8 mm 2 m/S 743 mmHg 93%
04:00 +20°C° 0.8 mm 2 m/S 743 mmHg 94%
05:00 +20°C° 0.8 mm 2 m/S 743 mmHg 94%
06:00 +20°C° 0.2 mm 2 m/S 743 mmHg 92%
07:00 +21°C° 0.2 mm 2 m/S 743 mmHg 90%
08:00 +23°C° 0.2 mm 2 m/S 743 mmHg 88%
09:00 +23°C° 0 mm 2 m/S 743 mmHg 87%
10:00 +24°C° 0 mm 3 m/S 743 mmHg 85%
11:00 +24°C° 0 mm 3 m/S 743 mmHg 83%
12:00 +25°C° 0 mm 3 m/S 743 mmHg 81%
13:00 +25°C° 0 mm 4 m/S 743 mmHg 80%
14:00 +26°C° 0 mm 4 m/S 743 mmHg 78%
15:00 +26°C° 0 mm 4 m/S 743 mmHg 77%
16:00 +26°C° 0 mm 3 m/S 743 mmHg 77%
17:00 +26°C° 0 mm 3 m/S 743 mmHg 77%
18:00 +24°C° 0 mm 3 m/S 743 mmHg 82%
19:00 +22°C° 0 mm 3 m/S 743 mmHg 87%
20:00 +20°C° 0 mm 2 m/S 743 mmHg 92%
21:00 +19°C° 0 mm 2 m/S 743 mmHg 93%
22:00 +19°C° 0 mm 2 m/S 743 mmHg 93%
23:00 +18°C° 0 mm 2 m/S 743 mmHg 93%

6 Juli, Montag

Zeit Temperatur Niederschläge Wind Luftdruck Luftfeuchtigkeit
00:00 +18°C° 0 mm 2 m/S 743 mmHg 93%
01:00 +19°C° 0 mm 1 m/S 743 mmHg 93%
02:00 +18°C° 0 mm 1 m/S 744 mmHg 92%
03:00 +19°C° 0 mm 1 m/S 744 mmHg 92%
04:00 +19°C° 0 mm 1 m/S 744 mmHg 91%
05:00 +19°C° 0 mm 1 m/S 744 mmHg 91%
06:00 +21°C° 0 mm 1 m/S 744 mmHg 87%
07:00 +22°C° 0 mm 1 m/S 744 mmHg 82%
08:00 +24°C° 0 mm 1 m/S 744 mmHg 78%
09:00 +25°C° 0 mm 1 m/S 744 mmHg 73%
10:00 +26°C° 0 mm 1 m/S 744 mmHg 69%
11:00 +27°C° 0 mm 1 m/S 744 mmHg 65%
12:00 +28°C° 0 mm 1 m/S 743 mmHg 62%
13:00 +28°C° 0 mm 1 m/S 743 mmHg 60%
14:00 +27°C° 0 mm 0 m/S 743 mmHg 57%
15:00 +29°C° 0 mm 1 m/S 743 mmHg 59%
16:00 +29°C° 0 mm 1 m/S 742 mmHg 60%
17:00 +28°C° 0 mm 1 m/S 742 mmHg 62%
18:00 +27°C° 0 mm 1 m/S 742 mmHg 67%
19:00 +25°C° 0 mm 1 m/S 742 mmHg 72%
20:00 +23°C° 0 mm 2 m/S 742 mmHg 76%
21:00 +23°C° 0 mm 2 m/S 742 mmHg 78%
22:00 +22°C° 0 mm 1 m/S 742 mmHg 80%
23:00 +21°C° 0 mm 1 m/S 742 mmHg 82%

7 Juli, Dienstag

Zeit Temperatur Niederschläge Wind Luftdruck Luftfeuchtigkeit
00:00 +21°C° 0 mm 1 m/S 741 mmHg 84%
01:00 +20°C° 0 mm 1 m/S 741 mmHg 85%
02:00 +20°C° 0 mm 1 m/S 741 mmHg 87%
03:00 +20°C° 0 mm 1 m/S 741 mmHg 88%
04:00 +20°C° 0 mm 1 m/S 741 mmHg 88%
05:00 +21°C° 0 mm 1 m/S 741 mmHg 89%
06:00 +22°C° 0 mm 1 m/S 741 mmHg 84%
07:00 +24°C° 0 mm 1 m/S 741 mmHg 80%
08:00 +26°C° 0 mm 1 m/S 741 mmHg 75%
09:00 +27°C° 0 mm 1 m/S 741 mmHg 71%
10:00 +28°C° 0 mm 1 m/S 741 mmHg 67%
11:00 +29°C° 0 mm 1 m/S 740 mmHg 62%
12:00 +29°C° 0 mm 1 m/S 740 mmHg 61%
13:00 +30°C° 0 mm 1 m/S 740 mmHg 59%
14:00 +30°C° 0 mm 1 m/S 740 mmHg 57%
15:00 +30°C° 0.2 mm 2 m/S 740 mmHg 60%
16:00 +30°C° 0.2 mm 2 m/S 740 mmHg 63%
17:00 +29°C° 0.2 mm 2 m/S 740 mmHg 66%
18:00 +27°C° 0.7 mm 3 m/S 740 mmHg 74%
19:00 +25°C° 0.7 mm 4 m/S 740 mmHg 81%
20:00 +22°C° 0.7 mm 5 m/S 740 mmHg 89%
21:00 +21°C° 0.2 mm 5 m/S 740 mmHg 91%
22:00 +20°C° 0.2 mm 5 m/S 740 mmHg 93%
23:00 +19°C° 0.2 mm 5 m/S 740 mmHg 95%

8 Juli, Mittwoch

Zeit Temperatur Niederschläge Wind Luftdruck Luftfeuchtigkeit
00:00 +19°C° 0.1 mm 6 m/S 740 mmHg 94%
01:00 +17°C° 0.1 mm 6 m/S 741 mmHg 93%
02:00 +16°C° 0.1 mm 6 m/S 741 mmHg 92%
03:00 +16°C° 0 mm 5 m/S 741 mmHg 92%
04:00 +16°C° 0 mm 5 m/S 741 mmHg 92%
05:00 +15°C° 0 mm 5 m/S 741 mmHg 92%
06:00 +16°C° 0 mm 5 m/S 742 mmHg 89%
07:00 +17°C° 0 mm 5 m/S 742 mmHg 86%
08:00 +19°C° 0 mm 5 m/S 742 mmHg 83%
09:00 +20°C° 0 mm 5 m/S 742 mmHg 80%
10:00 +21°C° 0 mm 5 m/S 743 mmHg 77%
11:00 +21°C° 0 mm 6 m/S 743 mmHg 75%
12:00 +22°C° 0 mm 5 m/S 743 mmHg 72%
13:00 +22°C° 0 mm 5 m/S 743 mmHg 70%
14:00 +23°C° 0 mm 5 m/S 743 mmHg 68%
15:00 +22°C° 0.1 mm 5 m/S 743 mmHg 70%
16:00 +22°C° 0.1 mm 5 m/S 743 mmHg 72%
17:00 +22°C° 0.1 mm 4 m/S 743 mmHg 74%
18:00 +20°C° 0.1 mm 4 m/S 743 mmHg 78%
19:00 +19°C° 0.1 mm 4 m/S 743 mmHg 83%
20:00 +18°C° 0.1 mm 3 m/S 743 mmHg 87%
21:00 +17°C° 0 mm 3 m/S 743 mmHg 87%
22:00 +16°C° 0 mm 3 m/S 743 mmHg 88%
23:00 +14°C° 0 mm 3 m/S 744 mmHg 89%
Mehr zeigen